MOLNIYA 1-91 (25485 NORAD) Tracking and Keplerian Element Data

This shows tracking and keplerian element data for the satellite.

Feedback or suggestion? Click here.




ElementValue
Catalog25485
NameMOLNIYA 1-91
Epoch Orbit20178
Epoch Day34.58172935
Epoch Year2025
RAAN359.3312
Inclination64.3641
Eccentricity0.6808969
Argument of Perigee288.7527
Mean Anonmoly12.5276
Mean Motion2.36444703
Decay Rate-1.5E-06
L11 25485U 98054A 25034.58172935 -.00000150 00000+0 00000+0 0 9999
L22 25485 64.3641 359.3312 6808969 288.7527 12.5276 2.36444703201785



Live tracking and technical data element details for MOLNIYA 1-91 (NORAD 25485). MOLNIYA 1-91 can be tracked NOW for your location showing map with azimuth and elevation plus other details from your city location.







IsCatalogInMostPopularTable: catalog: 25485, numindb: 364
Update: records affected: 1



GetName: 25485 MOLNIYA 1-91

Hit Count: updated at: Sat, 24 May 2025 17:04:53 GMT